SES-14

Last updated on Mon Sep 07 2026 00:03:00 GMT+0000 (Coordinated Universal Time)

1 43175U 18012B 26249.51113465 -.00000294 00000+0 00000+0 0 9995 2 43175 0.0173 61.0832 0001094 113.2568 307.7782 1.00271728 7844
UTC large
Height (km)
Speed (km/s)
/
Latitude / Longitude
Inclination (degrees)
Orbital Period (minutes)
Azimuth
Elevation
Range (km)
Doppler Factor

Next 0 passes for location: London (51.5072 / 0.1276)

No passes found over London.
SES-14